K4AVM-13 Weather Reports


time (UTC)temp
C
wind
direction
speed
KPH
gust
KPH
rain 1hr
cm
rain 24hr
cm
rain mn
cm
humidity
%
barometer
mb
20260510153242 27 147 0.0 4.8 0.00 0.00 0.00 39 1015.9
20260510152734 27 144 0.0 3.2 0.00 0.00 0.00 39 1016.0
20260510152230 27 143 0.0 1.6 0.00 0.00 0.00 43 1015.9
20260510151727 26 197 1.6 3.2 0.00 0.00 0.00 42 1016.0
20260510151226 26 94 0.0 1.6 0.00 0.00 0.00 40 1015.8
20260510150721 26 175 1.6 4.8 0.00 0.00 0.00 40 1016.1
20260510150216 27 146 1.6 4.8 0.00 0.00 0.00 42 1016.0
20260510145713 26 164 0.0 4.8 0.00 0.00 0.00 41 1016.2
20260510145209 26 181 3.2 4.8 0.00 0.00 0.00 40 1016.2
20260510144706 26 151 0.0 3.2 0.00 0.00 0.00 41 1016.1
20260510144203 26 150 0.0 1.6 0.00 0.00 0.00 41 1015.9
20260510143657 26 126 1.6 1.6 0.00 0.00 0.00 40 1015.8
20260510143154 26 168 1.6 3.2 0.00 0.00 0.00 41 1015.9
20260510142650 25 128 0.0 1.6 0.00 0.00 0.00 44 1015.8
20260510142147 25 145 0.0 3.2 0.00 0.00 0.00 46 1015.8
20260510141644 25 338 3.2 3.2 0.00 0.00 0.00 45 1015.8
20260510141142 25 193 1.6 1.6 0.00 0.00 0.00 46 1015.8
20260510140638 25 88 0.0 3.2 0.00 0.00 0.00 46 1015.9
20260510140137 25 156 0.0 1.6 0.00 0.00 0.00 48 1015.8
20260510135633 24 58 1.6 3.2 0.00 0.00 0.00 50 1015.7
20260510135129 24 146 0.0 1.6 0.00 0.00 0.00 55 1015.8
20260510134626 23 107 1.6 3.2 0.00 0.00 0.00 52 1015.7
20260510134124 23 148 0.0 4.8 0.00 0.00 0.00 59 1015.6
20260510133620 23 169 1.6 1.6 0.00 0.00 0.00 56 1015.7
20260510133115 23 139 1.6 1.6 0.00 0.00 0.00 56 1015.8
20260510132612 23 324 3.2 4.8 0.00 0.00 0.00 58 1015.9
20260510132109 23 149 0.0 3.2 0.00 0.00 0.00 61 1015.9
20260510131607 23 140 0.0 1.6 0.00 0.00 0.00 62 1015.8
20260510131104 22 136 0.0 1.6 0.00 0.00 0.00 61 1015.8
20260510130600 22 156 0.0 1.6 0.00 0.00 0.00 63 1015.7
20260510130058 21 141 1.6 1.6 0.00 0.00 0.00 64 1015.5
20260510125554 21 156 0.0 4.8 0.00 0.00 0.00 66 1015.4
20260510125050 21 154 0.0 1.6 0.00 0.00 0.00 68 1015.6
20260510124547 21 20 0.0 1.6 0.00 0.00 0.00 67 1015.5
20260510124044 20 148 0.0 3.2 0.00 0.00 0.00 70 1015.4
20260510123539 20 155 1.6 3.2 0.00 0.00 0.00 69 1015.5
20260510123036 20 142 0.0 1.6 0.00 0.00 0.00 72 1015.6
20260510122531 20 98 0.0 0.0 0.00 0.00 0.00 74 1015.6
20260510122028 19 145 0.0 1.6 0.00 0.00 0.00 77 1015.2
20260510121525 18 132 0.0 1.6 0.00 0.00 0.00 78 1015.3
20260510121022 18 148 0.0 1.6 0.00 0.00 0.00 79 1015.1
20260510120520 18 153 0.0 3.2 0.00 0.00 0.00 80 1015.1
20260510120016 17 146 0.0 0.0 0.00 0.00 0.00 84 1014.9
20260510115512 16 164 0.0 1.6 0.00 0.00 0.00 87 1014.9
20260510115009 15 159 0.0 0.0 0.00 0.00 0.00 92 1014.9
20260510114505 15 158 0.0 0.0 0.00 0.00 0.00 96 1014.7
20260510114001 15 162 0.0 0.0 0.00 0.00 0.00 99 1014.7
20260510113456 14 156 0.0 0.0 0.00 0.00 0.00 99 1014.6
20260510112954 14 150 0.0 0.0 0.00 0.00 0.00 99 1014.8
20260510112451 14 146 0.0 0.0 0.00 0.00 0.00 99 1014.4
20260510111947 14 157 0.0 0.0 0.00 0.00 0.00 99 1014.6
20260510111443 13 165 1.6 1.6 0.00 0.00 0.00 99 1014.4
20260510110940 13 154 0.0 0.0 0.00 0.00 0.00 99 1014.2
20260510110436 13 156 0.0 0.0 0.00 0.00 0.00 99 1014.2
20260510105932 13 157 0.0 0.0 0.00 0.00 0.00 99 1014.4
20260510105427 13 157 0.0 0.0 0.00 0.00 0.00 99 1014.2
20260510104922 13 157 0.0 0.0 0.00 0.00 0.00 99 1014.1
20260510104419 12 157 0.0 0.0 0.00 0.00 0.00 99 1014.1
20260510103916 12 157 0.0 0.0 0.00 0.00 0.00 99 1014.0
20260510103413 12 158 0.0 0.0 0.00 0.00 0.00 99 1013.9
20260510102908 12 158 0.0 0.0 0.00 0.00 0.00 99 1013.8
20260510102404 12 158 0.0 0.0 0.00 0.00 0.00 99 1013.8
20260510101902 12 151 0.0 0.0 0.00 0.00 0.00 99 1013.8
20260510101359 12 155 0.0 0.0 0.00 0.00 0.00 99 1013.5
20260510100856 12 151 0.0 0.0 0.00 0.00 0.00 99 1013.4
20260510100353 12 148 0.0 0.0 0.00 0.00 0.00 99 1013.6
20260510095850 12 135 0.0 0.0 0.00 0.00 0.00 99 1013.4
20260510095344 12 141 0.0 0.0 0.00 0.00 0.00 99 1013.3
20260510094844 12 136 0.0 0.0 0.00 0.00 0.00 99 1013.4
20260510094339 12 144 0.0 0.0 0.00 0.00 0.00 99 1013.3
20260510093836 12 144 0.0 0.0 0.00 0.00 0.00 99 1013.4
20260510093332 12 145 0.0 0.0 0.00 0.00 0.00 99 1013.5
20260510092828 12 144 0.0 0.0 0.00 0.00 0.00 99 1013.3
20260510092324 12 142 0.0 0.0 0.00 0.00 0.00 99 1013.3
20260510091820 12 145 0.0 0.0 0.00 0.00 0.00 99 1013.2
20260510091318 12 145 0.0 0.0 0.00 0.00 0.00 99 1013.1
20260510090814 12 143 0.0 0.0 0.00 0.00 0.00 99 1013.1
20260510090311 12 145 0.0 0.0 0.00 0.00 0.00 99 1012.9
20260510085807 12 145 0.0 0.0 0.00 0.00 0.00 98 1012.9
20260510085307 13 145 0.0 0.0 0.00 0.00 0.00 98 1012.7
20260510084802 13 145 0.0 0.0 0.00 0.00 0.00 98 1012.8
20260510084300 13 145 0.0 0.0 0.00 0.00 0.00 98 1012.8
20260510083756 13 151 0.0 0.0 0.00 0.00 0.00 98 1012.7
20260510083254 13 151 0.0 0.0 0.00 0.00 0.00 98 1012.8
20260510082749 13 151 0.0 0.0 0.00 0.00 0.00 98 1012.9
20260510082245 13 151 0.0 0.0 0.00 0.00 0.00 97 1012.8
20260510081744 13 150 0.0 0.0 0.00 0.00 0.00 97 1012.8
20260510081241 14 151 0.0 0.0 0.00 0.00 0.00 97 1012.8
20260510080736 14 151 0.0 0.0 0.00 0.00 0.00 97 1012.7
20260510080232 14 151 0.0 0.0 0.00 0.00 0.00 97 1012.6
20260510075729 14 151 0.0 0.0 0.00 0.00 0.00 96 1012.7
20260510075227 14 151 0.0 0.0 0.00 0.00 0.00 96 1012.6
20260510074724 14 153 0.0 0.0 0.00 0.00 0.00 96 1012.6
20260510074220 14 151 0.0 0.0 0.00 0.00 0.00 95 1012.5
20260510073717 15 151 0.0 0.0 0.00 0.00 0.00 95 1012.5
20260510073212 15 151 0.0 0.0 0.00 0.00 0.00 94 1012.5
20260510072708 15 151 0.0 0.0 0.00 0.00 0.00 94 1012.6
20260510072205 15 145 0.0 0.0 0.00 0.00 0.00 93 1012.5
20260510071701 15 145 0.0 0.0 0.00 0.00 0.00 93 1012.4
20260510071159 15 149 0.0 0.0 0.00 0.00 0.00 92 1012.4
20260510070656 15 149 0.0 0.0 0.00 0.00 0.00 92 1012.5
20260510070154 16 149 0.0 0.0 0.00 0.00 0.00 91 1012.5
20260510065649 16 149 0.0 0.0 0.00 0.00 0.00 91 1012.7
20260510065145 16 141 0.0 0.0 0.00 0.00 0.00 90 1012.5
20260510064642 16 136 0.0 0.0 0.00 0.00 0.00 89 1012.6
20260510064139 16 151 0.0 0.0 0.00 0.00 0.00 89 1012.6
20260510063636 16 151 0.0 0.0 0.00 0.00 0.00 88 1012.4
20260510063132 17 152 0.0 0.0 0.00 0.00 0.00 88 1012.5
20260510062628 17 141 0.0 0.0 0.00 0.00 0.00 87 1012.7
20260510062124 17 141 0.0 0.0 0.00 0.00 0.00 86 1012.4
20260510061620 17 153 0.0 0.0 0.00 0.00 0.00 86 1012.5
20260510061118 17 156 0.0 1.6 0.00 0.00 0.00 85 1012.5
20260510060613 18 151 0.0 0.0 0.00 0.00 0.00 84 1012.4
20260510060110 18 150 0.0 3.2 0.00 0.00 0.00 83 1012.4
20260510055606 18 153 0.0 3.2 0.00 0.00 0.00 83 1012.4
20260510055104 18 161 0.0 1.6 0.00 0.00 0.00 83 1012.5
20260510054600 18 153 0.0 3.2 0.00 0.00 0.00 82 1012.5
20260510054055 18 156 0.0 3.2 0.00 0.00 0.00 82 1012.5
20260510053549 18 151 0.0 1.6 0.00 0.00 0.00 82 1012.6
20260510053047 18 164 0.0 4.8 0.00 0.00 0.00 82 1012.4
20260510052542 18 99 0.0 3.2 0.00 0.00 0.00 82 1012.5
20260510052038 18 153 0.0 1.6 0.00 0.00 0.00 82 1012.4
20260510051534 18 149 0.0 3.2 0.00 0.00 0.00 82 1012.4
20260510051031 18 141 0.0 1.6 0.00 0.00 0.00 82 1012.7
20260510050528 18 155 1.6 1.6 0.00 0.00 0.00 82 1012.5
20260510050026 18 160 0.0 4.8 0.00 0.00 0.00 81 1012.5
20260510045522 18 135 0.0 0.0 0.00 0.00 0.00 81 1012.5
20260510045018 18 151 0.0 1.6 0.00 0.00 0.00 80 1012.7
20260510044515 18 160 0.0 3.2 0.00 0.00 0.00 81 1012.6
20260510044014 18 146 0.0 0.0 0.00 0.00 0.00 82 1012.8
20260510043513 18 164 0.0 0.0 0.00 0.00 0.00 80 1012.6
20260510043009 18 160 3.2 3.2 0.00 0.00 0.00 81 1012.5
20260510042503 18 158 0.0 0.0 0.00 0.00 0.00 81 1012.4
20260510041958 18 134 1.6 3.2 0.00 0.00 0.00 81 1012.6
20260510041455 18 149 0.0 0.0 0.00 0.00 0.00 81 1012.7
20260510040954 18 151 0.0 1.6 0.00 0.00 0.00 81 1012.4
20260510040450 18 151 0.0 0.0 0.00 0.00 0.00 80 1012.4
20260510035946 18 154 3.2 11.3 0.00 0.00 0.00 80 1012.6
20260510035442 17 161 0.0 1.6 0.00 0.00 0.00 80 1012.5
20260510034937 17 165 0.0 1.6 0.00 0.00 0.00 81 1012.4
20260510034436 17 136 0.0 0.0 0.00 0.00 0.00 81 1012.4
20260510033932 17 154 0.0 0.0 0.00 0.00 0.00 81 1012.3
20260510033428 17 144 0.0 0.0 0.00 0.00 0.00 81 1012.4
20260510032925 17 141 0.0 0.0 0.00 0.00 0.00 81 1012.2
20260510032421 17 145 0.0 0.0 0.00 0.00 0.00 81 1012.2
20260510031916 17 151 0.0 0.0 0.00 0.00 0.00 80 1012.3
20260510031413 17 145 0.0 0.0 0.00 0.00 0.00 80 1012.2
20260510030912 17 151 0.0 0.0 0.00 0.00 0.00 79 1012.3
20260510030409 17 151 0.0 0.0 0.00 0.00 0.00 78 1012.3
20260510025907 17 154 0.0 3.2 0.00 0.00 0.00 77 1012.2
20260510025404 18 151 0.0 0.0 0.00 0.00 0.00 77 1011.9
20260510024901 18 151 0.0 0.0 0.00 0.00 0.00 76 1012.2
20260510024357 18 151 0.0 0.0 0.00 0.00 0.00 77 1012.1
20260510023853 18 154 0.0 0.0 0.00 0.00 0.00 76 1012.0
20260510023350 18 123 0.0 0.0 0.00 0.00 0.00 77 1012.0
20260510022848 17 160 0.0 0.0 0.00 0.00 0.00 77 1011.8
20260510022347 18 150 0.0 0.0 0.00 0.00 0.00 76 1012.0
20260510021845 18 161 0.0 0.0 0.00 0.00 0.00 76 1011.9
20260510021344 17 137 0.0 0.0 0.00 0.00 0.00 76 1011.8
20260510020840 17 141 0.0 0.0 0.00 0.00 0.00 76 1011.6
20260510020335 17 145 0.0 0.0 0.00 0.00 0.00 76 1011.7
20260510015831 17 151 0.0 0.0 0.00 0.00 0.00 75 1011.4
20260510015327 18 151 0.0 0.0 0.00 0.00 0.00 75 1011.3
20260510014822 18 146 0.0 0.0 0.00 0.00 0.00 74 1011.3
20260510014320 18 141 0.0 0.0 0.00 0.00 0.00 74 1011.2
20260510013816 18 151 0.0 0.0 0.00 0.00 0.00 73 1011.2
20260510013311 18 151 0.0 0.0 0.00 0.00 0.00 72 1011.5
20260510012806 18 151 0.0 0.0 0.00 0.00 0.00 72 1011.5
20260510012300 18 152 0.0 0.0 0.00 0.00 0.00 71 1011.2
20260510011755 18 150 0.0 0.0 0.00 0.00 0.00 71 1011.0
20260510011251 18 151 0.0 0.0 0.00 0.00 0.00 71 1011.2
20260510010748 18 144 0.0 0.0 0.00 0.00 0.00 70 1011.0
20260510010244 18 144 0.0 0.0 0.00 0.00 0.00 70 1011.0
20260510005742 18 149 0.0 0.0 0.00 0.00 0.00 69 1010.9
20260510005238 18 149 0.0 0.0 0.00 0.00 0.00 68 1011.0
20260510004736 19 148 0.0 0.0 0.00 0.00 0.00 67 1010.9
20260510004233 19 148 0.0 0.0 0.00 0.00 0.00 67 1010.6
20260510003731 19 151 0.0 0.0 0.00 0.00 0.00 66 1010.8
20260510003227 20 153 0.0 0.0 0.00 0.00 0.00 65 1010.4
20260510002725 20 153 0.0 0.0 0.00 0.00 0.00 64 1010.5
20260510002223 20 154 0.0 0.0 0.00 0.00 0.00 62 1010.3
20260510001720 21 154 0.0 0.0 0.00 0.00 0.00 61 1010.4
20260510001219 21 149 0.0 0.0 0.00 0.00 0.00 60 1010.3
20260510000714 21 153 0.0 0.0 0.00 0.00 0.00 60 1010.0
20260510000212 21 152 0.0 0.0 0.00 0.00 0.00 58 1010.2
20260509235708 22 162 0.0 0.0 0.00 0.00 0.00 58 1010.1
20260509235204 22 131 0.0 1.6 0.00 0.00 0.00 55 1010.1
20260509234701 22 195 1.6 4.8 0.00 0.00 0.00 54 1010.0
20260509234158 22 162 1.6 1.6 0.00 0.00 0.00 54 1009.9
20260509233656 22 156 0.0 0.0 0.00 0.00 0.00 55 1010.0
20260509233153 22 158 0.0 1.6 0.00 0.00 0.00 55 1010.0
20260509232649 22 163 0.0 0.0 0.00 0.00 0.00 55 1010.0
20260509232146 22 157 0.0 1.6 0.00 0.00 0.00 55 1009.9
20260509231643 23 149 0.0 0.0 0.00 0.00 0.00 54 1010.1
20260509231140 23 154 0.0 0.0 0.00 0.00 0.00 52 1010.1
20260509230637 23 143 3.2 4.8 0.00 0.00 0.00 51 1010.1
20260509230134 23 155 0.0 1.6 0.00 0.00 0.00 52 1010.0
20260509225630 23 164 0.0 3.2 0.00 0.00 0.00 51 1009.9
20260509225125 23 138 1.6 1.6 0.00 0.00 0.00 50 1010.1
20260509224621 23 160 0.0 1.6 0.00 0.00 0.00 51 1009.9
20260509224118 23 167 1.6 3.2 0.00 0.00 0.00 50 1009.8
20260509223615 23 160 1.6 4.8 0.00 0.00 0.00 50 1010.0
20260509223113 24 178 1.6 3.2 0.00 0.00 0.00 50 1009.7
20260509222608 24 150 0.0 1.6 0.00 0.00 0.00 50 1010.0
20260509222105 24 156 0.0 4.8 0.00 0.00 0.00 51 1010.0
20260509221600 25 152 0.0 1.6 0.00 0.00 0.00 50 1010.0
20260509221056 25 158 1.6 4.8 0.00 0.00 0.00 51 1010.1
20260509220552 24 179 1.6 1.6 0.00 0.00 0.00 50 1010.0
20260509220049 24 205 3.2 3.2 0.00 0.00 0.00 50 1009.9
20260509215544 24 165 0.0 1.6 0.00 0.00 0.00 52 1009.8
20260509215042 23 160 0.0 1.6 0.00 0.00 0.00 51 1009.8
20260509214539 24 131 1.6 6.4 0.00 0.00 0.00 50 1009.9
20260509214036 25 139 0.0 6.4 0.00 0.00 0.00 50 1009.7
20260509213532 25 162 1.6 6.4 0.00 0.00 0.00 49 1009.9
20260509213029 25 172 0.0 9.7 0.00 0.00 0.00 49 1009.9
20260509212526 25 167 8.0 11.3 0.00 0.00 0.00 47 1009.9
20260509212023 25 164 8.0 12.9 0.00 0.00 0.00 47 1009.8
20260509211518 25 181 3.2 9.7 0.00 0.00 0.00 47 1009.8
20260509211016 25 179 3.2 16.1 0.00 0.00 0.00 48 1009.8
20260509210512 25 108 1.6 4.8 0.00 0.00 0.00 48 1009.8
20260509210009 25 182 3.2 12.9 0.00 0.00 0.00 48 1009.9
20260509205503 26 156 1.6 1.6 0.00 0.00 0.00 49 1009.7
20260509204958 26 160 0.0 4.8 0.00 0.00 0.00 49 1009.6
20260509204455 25 181 1.6 4.8 0.00 0.00 0.00 47 1009.7
20260509203951 25 138 1.6 3.2 0.00 0.00 0.00 47 1009.6
20260509203447 25 160 8.0 12.9 0.00 0.00 0.00 45 1009.7
20260509202945 25 77 4.8 9.7 0.00 0.00 0.00 46 1009.7
20260509202441 25 122 1.6 3.2 0.00 0.00 0.00 45 1009.8
20260509201936 25 187 6.4 9.7 0.00 0.00 0.00 46 1009.7
20260509201426 25 163 1.6 6.4 0.00 0.00 0.00 46 1009.6
20260509200923 25 110 6.4 16.1 0.00 0.00 0.00 46 1009.8
20260509200423 26 163 0.0 6.4 0.00 0.00 0.00 46 1009.8
20260509195919 25 155 0.0 9.7 0.00 0.00 0.00 47 1010.0
20260509195415 23 186 3.2 14.5 0.00 0.00 0.00 48 1010.1
20260509194909 23 168 1.6 6.4 0.00 0.00 0.00 50 1010.2
20260509194405 23 209 3.2 4.8 0.00 0.00 0.00 50 1010.4
20260509193901 23 149 1.6 6.4 0.00 0.00 0.00 50 1010.3
20260509193356 23 201 3.2 4.8 0.00 0.00 0.00 50 1010.3
20260509192852 23 157 0.0 1.6 0.00 0.00 0.00 50 1010.3
20260509192348 23 181 4.8 9.7 0.00 0.00 0.00 49 1010.4
20260509191844 23 133 4.8 6.4 0.00 0.00 0.00 48 1010.3
20260509191340 25 158 1.6 1.6 0.00 0.00 0.00 49 1010.5
20260509190836 25 149 4.8 9.7 0.00 0.00 0.00 44 1010.4
20260509190333 25 165 1.6 4.8 0.00 0.00 0.00 47 1010.6
20260509185830 25 154 3.2 6.4 0.00 0.00 0.00 46 1010.5
20260509185327 26 227 3.2 4.8 0.00 0.00 0.00 45 1010.8
20260509184825 25 178 4.8 4.8 0.00 0.00 0.00 45 1011.0
20260509184321 25 181 3.2 4.8 0.00 0.00 0.00 47 1011.1
20260509183817 23 176 1.6 3.2 0.00 0.00 0.00 50 1011.1
20260509183307 24 148 4.8 6.4 0.00 0.00 0.00 47 1011.1
20260509182803 25 133 3.2 4.8 0.00 0.00 0.00 46 1011.2
20260509182300 25 130 1.6 6.4 0.00 0.00 0.00 47 1011.3
20260509181757 23 168 0.0 1.6 0.00 0.00 0.00 49 1011.4
20260509181255 23 183 3.2 9.7 0.00 0.00 0.00 47 1011.4
20260509180752 25 200 4.8 4.8 0.00 0.00 0.00 44 1011.6
20260509180248 25 200 3.2 9.7 0.00 0.00 0.00 45 1011.4
20260509175744 25 115 3.2 4.8 0.00 0.00 0.00 46 1011.6
20260509175241 25 148 3.2 6.4 0.00 0.00 0.00 45 1011.5
20260509174737 25 165 3.2 4.8 0.00 0.00 0.00 47 1011.7
20260509174233 25 180 1.6 4.8 0.00 0.00 0.00 47 1011.7
20260509173729 25 179 1.6 12.9 0.00 0.00 0.00 47 1011.7
20260509173225 25 62 4.8 11.3 0.00 0.00 0.00 47 1011.5
20260509172721 23 73 3.2 11.3 0.00 0.00 0.00 48 1011.7
20260509172217 25 138 3.2 11.3 0.00 0.00 0.00 48 1011.8
20260509171713 25 149 1.6 6.4 0.00 0.00 0.00 51 1012.0
20260509171210 23 192 1.6 4.8 0.00 0.00 0.00 51 1012.0
20260509170707 23 214 3.2 9.7 0.00 0.00 0.00 51 1012.0
20260509170202 23 244 3.2 6.4 0.00 0.00 0.00 51 1012.1
20260509165701 23 178 4.8 9.7 0.00 0.00 0.00 51 1012.2
20260509165156 23 201 3.2 4.8 0.00 0.00 0.00 52 1012.5
20260509164653 23 158 0.0 4.8 0.00 0.00 0.00 52 1012.6
20260509164148 22 165 1.6 9.7 0.00 0.00 0.00 54 1012.7
20260509163646 23 201 1.6 11.3 0.00 0.00 0.00 50 1012.5
20260509163142 23 108 3.2 4.8 0.00 0.00 0.00 51 1012.4
20260509162639 23 176 3.2 11.3 0.00 0.00 0.00 51 1012.3
20260509162135 23 189 0.0 6.4 0.00 0.00 0.00 49 1012.3
20260509161631 23 182 3.2 11.3 0.00 0.00 0.00 51 1012.4
20260509161126 22 166 3.2 6.4 0.00 0.00 0.00 50 1012.5
20260509160622 23 211 9.7 14.5 0.00 0.00 0.00 49 1012.5
20260509160118 23 157 3.2 11.3 0.00 0.00 0.00 51 1012.6
20260509155614 23 133 3.2 6.4 0.00 0.00 0.00 50 1012.5
20260509155111 23 206 3.2 9.7 0.00 0.00 0.00 48 1012.9
20260509154606 22 154 1.6 6.4 0.00 0.00 0.00 50 1013.1
20260509154104 22 194 8.0 12.9 0.00 0.00 0.00 50 1013.0